www.pogodaiklimat.ru

Погода и климат >> Архив погоды >> Италия >> Болонья


ПОГОДА в Болонье

  • Прогноз погоды в Болонье
  • Монитор погоды в Болонье

АРХИВ ПОГОДЫ в Болонье

Время (UTC), дата Ветер
(напр.,м/с)
 
Видим.   Явления Облачность Т
(С)
Тd
(С)
f
(%)
Тe
(С)
Тes
(С)
Комфортность P
(гПа)
Po
(гПа)
Тmin
(С)
Tmax
(С)
R
(мм)
R24
(мм)
S
(см)
13 14.07 ЮЗ 4 н/о н/о +28.5 +16.4 48 +32 +32 душно 1010.5 1004.9
14 14.07 ЮЗ 7 н/о н/о +28.8 +17.0 49 +33 +33 очень
душно
1010.3 1004.7
15 14.07 ЮЗ 6 н/о н/о +28.2 +17.1 51 +32 +32 душно 1009.9 1004.3
16 14.07 СЗ 4 н/о н/о +26.6 +16.2 53 +30 +30 душно 1010.0 1004.4
17 14.07 З 3 н/о н/о +25.7 +15.9 55 +29 +29 душно 1009.8 1004.2
18 14.07 СЗ 4 н/о н/о +24.5 +16.9 63 +28 +28 душно 1009.7 1004.0 +29.1
19 14.07 ЮЗ 3 н/о н/о +24.0 +16.7 64 +28 +28 душно 1009.5 1003.8
20 14.07 ЮЗ 4 н/о н/о +23.7 +15.7 61 +27 +27 жарко 1009.8 1004.1
21 14.07 ЮЗ 5 н/о н/о +22.7 +15.2 63 +27 +27 душно 1009.8 1004.1
22 14.07 ЮЗ 4 н/о н/о +22.4 +15.2 64 +26 +26 жарко 1010.0 1004.3
23 14.07 ЮЗ 3 н/о н/о +22.2 +15.0 64 +26 +26 душно 1009.9 1004.2
00 15.07 СЗ 1 н/о н/о +21.3 +14.6 66 +24 +24 комфорт 1009.9 1004.2
01 15.07 СЗ 1 н/о н/о +20.9 +16.8 77 +26 +26 душно 1009.8 1004.1
02 15.07 СВ 2 н/о н/о +20.3 +16.1 77 +24 +24 комфорт 1009.7 1004.0
03 15.07 С 2 н/о н/о +20.1 +16.1 78 +24 +24 комфорт 1009.9 1004.2
04 15.07 СВ 3 н/о н/о +19.8 +15.8 78 +22 +22 комфорт 1009.7 1004.0
05 15.07 СВ 2 н/о н/о +18.7 +15.5 82 +20 +20 1009.4 1003.6
06 15.07 СВ 2 н/о н/о +18.5 +15.5 83 +20 +20 1009.4 1003.6 +18.4 0.4 303
07 15.07 СЗ 2 н/о н/о +18.9 +16.1 84 +21 +21 комфорт 1010.0 1004.2
08 15.07 С 2 н/о н/о +19.4 +16.4 83 +22 +22 комфорт 1009.9 1004.1
09 15.07 С 2 н/о н/о +20.4 +16.8 80 +24 +24 комфорт 1009.7 1004.0
10 15.07 З 3 н/о н/о +18.9 +15.7 82 +20 +20 1010.7 1004.9
11 15.07 ЮЗ 5 н/о н/о +18.2 +15.0 82 +18 +18 1010.9 1005.1
12 15.07 Ю 3 н/о н/о +19.2 +16.2 83 +21 +21 комфорт 1011.7 1005.9 3
13 15.07 Ю 2 н/о н/о +18.8 +15.8 83 +20 +20 1012.2 1006.4
14 15.07 З 4 н/о н/о +18.8 +15.6 82 +20 +20 1011.9 1006.1
15 15.07 СЗ 1 н/о н/о +19.0 +15.4 80 +21 +21 комфорт 1011.7 1005.9
16 15.07 ЮВ 1 н/о н/о +19.8 +16.2 80 +23 +23 комфорт 1011.8 1006.0
17 15.07 З 1 н/о н/о +20.0 +14.7 72 +24 +24 комфорт 1011.9 1006.1
18 15.07 С 1 н/о н/о +19.6 +15.6 78 +23 +23 комфорт 1011.8 1006.0 +20.7 9
19 15.07 СВ 1 н/о н/о +19.1 +15.3 79 +22 +22 комфорт 1012.2 1006.4
20 15.07 С 2 н/о н/о +18.0 +14.8 82 +19 +19 1012.9 1007.1
21 15.07 С 2 н/о н/о +17.6 +14.6 83 +18 +18 1013.1 1007.3
22 15.07 С 2 н/о н/о +17.1 +14.3 84 +18 +18 1013.9 1008.1
23 15.07 С 3 н/о н/о +17.3 +14.5 84 +17 +17 1014.0 1008.2
00 16.07 С 2 н/о н/о +17.4 +14.6 84 +18 +18 1014.1 1008.3
01 16.07 С 4 н/о н/о +17.1 +14.1 83 +17 +17 1013.8 1008.0
02 16.07 СВ 2 н/о н/о +17.1 +14.1 83 +18 +18 1013.7 1007.9
03 16.07 С 3 н/о н/о +17.1 +14.1 83 +17 +17 1013.7 1007.9
04 16.07 С 3 н/о н/о +17.3 +14.3 83 +17 +17 1013.8 1008.0
05 16.07 СВ 2 н/о н/о +17.8 +14.8 83 +18 +18 1014.2 1008.4
06 16.07 СВ 2 н/о н/о +19.1 +15.9 82 +21 +21 комфорт 1014.5 1008.7 +16.9 304
07 16.07 СВ 2 н/о н/о +20.7 +16.9 79 +25 +25 комфорт 1014.4 1008.7
08 16.07 СВ 1 н/о н/о +22.3 +15.3 65 +26 +26 жарко 1014.6 1008.9
09 16.07 ЮВ 3 н/о н/о +23.7 +16.2 63 +27 +27 жарко 1014.5 1008.8
10 16.07 В 1 н/о н/о +24.5 +15.9 59 +28 +28 душно 1014.7 1009.0
11 16.07 В 2 н/о н/о +26.6 +16.2 53 +30 +30 душно 1014.5 1008.9
12 16.07 Ю 4 н/о н/о +26.5 +15.2 50 +29 +29 жарко 1014.1 1008.5
13 16.07 ЮВ 2 н/о н/о +27.8 +14.4 44 +30 +30 жарко 1013.8 1008.2
14 16.07 ЮВ 4 н/о н/о +28.6 +13.6 40 +30 +30 жарко 1013.5 1007.9
15 16.07 СЗ 4 н/о н/о +28.0 +12.8 39 +29 +29 жарко 1013.1 1007.5
16 16.07 З 3 н/о н/о +28.4 +13.1 39 +30 +30 жарко 1012.8 1007.2
17 16.07 Ю 2 н/о н/о +28.0 +13.1 40 +30 +30 жарко 1012.7 1007.1
18 16.07 Ю 2 н/о н/о +27.8 +11.8 37 +29 +29 жарко 1012.7 1007.1 +29.5
19 16.07 В 1 н/о н/о +26.3 +14.0 47 +29 +29 жарко 1013.0 1007.4
20 16.07 СЗ 3 н/о н/о +23.0 +13.4 55 +26 +26 жарко 1013.6 1007.9
21 16.07 СЗ 3 н/о н/о +21.1 +13.4 61 +23 +23 комфорт 1013.7 1008.0
22 16.07 СЗ 3 н/о н/о +20.7 +13.1 62 +23 +23 комфорт 1014.0 1008.2
23 16.07 СЗ 5 н/о н/о +20.7 +12.8 61 +23 +23 комфорт 1014.3 1008.5
00 17.07 СЗ 5 н/о н/о +20.1 +12.5 62 +22 +22 комфорт 1014.4 1008.6
01 17.07 СЗ 6 н/о н/о +19.7 +12.2 62 +21 +21 комфорт 1014.1 1008.3
02 17.07 СЗ 4 н/о н/о +19.5 +12.0 62 +21 +21 комфорт 1013.8 1008.0
03 17.07 СЗ 5 н/о н/о +19.1 +11.6 62 +20 +20 1013.6 1007.8
04 17.07 СЗ 6 н/о н/о +18.8 +11.3 62 +19 +19 1013.6 1007.8
05 17.07 СЗ 5 н/о н/о +18.2 +11.2 64 +18 +18 1013.8 1008.0
06 17.07 СЗ 5 н/о н/о +20.1 +12.3 61 +22 +22 комфорт 1013.9 1008.1 +17.7 208
07 17.07 С 4 н/о н/о +21.4 +13.2 60 +24 +24 комфорт 1014.2 1008.5
08 17.07 СЗ 3 н/о н/о +23.6 +14.5 57 +26 +26 жарко 1014.0 1008.3
09 17.07 СЗ 4 н/о н/о +27.0 +15.6 50 +30 +30 душно 1013.5 1007.9
10 17.07 З 2 н/о н/о +29.0 +14.0 40 +31 +31 жарко 1013.2 1007.6
11 17.07 З 5 н/о н/о +30.0 +14.5 39 +32 +32 жарко 1012.6 1007.0
12 17.07 З 3 н/о н/о +30.7 +14.7 38 +33 +33 душно 1012.0 1006.4
13 17.07 ЮЗ 3 н/о н/о +30.5 +15.0 39 +33 +33 душно 1011.5 1005.9
14 17.07 СЗ 1 н/о н/о +31.8 +15.3 37 +34 +34 душно 1010.9 1005.4
15 17.07 Ю 3 н/о н/о +31.6 +15.9 39 +34 +34 душно 1010.5 1005.0
16 17.07 СВ 2 н/о н/о +31.7 +15.2 37 +34 +34 душно 1009.8 1004.3
17 17.07 З 2 н/о н/о +31.3 +16.5 41 +34 +34 душно 1009.3 1003.8
18 17.07 З 1 н/о н/о +30.5 +16.8 44 +34 +34 очень
душно
1009.3 1003.8 +32.6
19 17.07 З 3 н/о н/о +29.1 +16.9 48 +33 +33 очень
душно
1009.5 1003.9
20 17.07 ЮЗ 2 н/о н/о +26.6 +16.8 55 +30 +30 душно 1010.1 1004.5
21 17.07 СЗ 2 н/о н/о +25.4 +16.5 58 +29 +29 душно 1010.3 1004.7
22 17.07 СЗ 3 н/о н/о +24.0 +15.0 57 +27 +27 жарко 1010.3 1004.6
23 17.07 СЗ 2 н/о н/о +22.4 +14.4 61 +26 +26 жарко 1010.6 1004.9
00 18.07 СЗ 3 н/о н/о +22.3 +14.1 60 +26 +26 жарко 1010.7 1005.0
01 18.07 СЗ 3 н/о н/о +21.6 +13.4 60 +24 +24 комфорт 1010.4 1004.7
02 18.07 СЗ 3 н/о н/о +21.1 +12.9 59 +23 +23 комфорт 1010.4 1004.7
03 18.07 С 3 н/о н/о +20.5 +12.7 61 +23 +23 комфорт 1010.4 1004.7
04 18.07 С 3 н/о н/о +19.7 +12.4 63 +22 +22 комфорт 1010.7 1004.9
06 18.07 С 2 н/о н/о +20.8 +13.4 63 +24 +24 комфорт 1011.2 1005.5 +19.3 503
07 18.07 СВ 4 н/о н/о +22.5 +15.0 63 +26 +26 жарко 1011.5 1005.8
08 18.07 СВ 1 н/о н/о +23.8 +17.0 66 +28 +28 душно 1011.6 1005.9
09 18.07 СВ 4 н/о н/о +24.6 +19.4 73 +30 +30 очень
душно
1011.9 1006.2
10 18.07 СВ 5 н/о н/о +25.2 +19.3 70 +30 +30 душно 1012.5 1006.8
11 18.07 СВ 3 н/о н/о +25.7 +19.3 68 +31 +31 очень
душно
1012.6 1007.0
12 18.07 С 5 н/о н/о +24.2 +18.8 72 +29 +29 душно 1012.9 1007.2
13 18.07 СВ 2 н/о н/о +23.5 +17.6 69 +27 +27 душно 1013.1 1007.4
14 18.07 С 2 н/о н/о +23.1 +18.6 76 +29 +29 очень
душно
1012.7 1007.0
15 18.07 СВ 1 н/о н/о +26.0 +21.2 75 +33 +33 очень
душно
1011.9 1006.3
16 18.07 ЮЗ 2 н/о н/о +26.5 +19.1 64 +32 +32 очень
душно
1011.8 1006.2
17 18.07 З 3 н/о н/о +26.3 +20.3 70 +33 +33 очень
душно
1012.1 1006.5
18 18.07 З 1 н/о н/о +26.0 +18.8 65 +31 +31 очень
душно
1012.1 1006.5 +27.3 192
19 18.07 СЗ 1 н/о н/о +25.3 +18.7 67 +30 +30 душно 1012.2 1006.5
20 18.07 СЗ 3 н/о н/о +24.0 +19.4 75 +29 +29 душно 1012.8 1007.1
21 18.07 СЗ 2 н/о н/о +23.4 +20.1 82 +31 +31 очень
душно
1013.3 1007.6
22 18.07 СЗ 3 н/о н/о +23.0 +19.7 82 +30 +30 очень
душно
1013.6 1007.9
23 18.07 СЗ 2 н/о н/о +21.9 +18.6 82 +27 +27 душно 1014.1 1008.4
00 19.07 СЗ 1 н/о н/о +21.9 +18.6 82 +27 +27 душно 1014.3 1008.6
01 19.07 С 2 н/о н/о +20.9 +17.6 81 +25 +25 комфорт 1014.8 1009.0
02 19.07 СЗ 3 н/о н/о +20.0 +17.0 83 +23 +23 комфорт 1015.0 1009.2
03 19.07 СЗ 3 н/о н/о +19.5 +16.5 83 +22 +22 комфорт 1015.0 1009.2
04 19.07 СЗ 2 н/о н/о +19.2 +16.0 82 +21 +21 комфорт 1015.4 1009.6
05 19.07 СЗ 2 н/о н/о +19.6 +16.4 82 +22 +22 комфорт 1015.4 1009.6
06 19.07 СЗ 2 н/о н/о +20.7 +16.7 78 +25 +25 комфорт 1015.8 1010.0 +19.1 206
07 19.07 С 1 н/о н/о +22.6 +17.9 75 +28 +28 душно 1016.1 1010.4
08 19.07 СВ 2 н/о н/о +24.4 +18.5 70 +29 +29 душно 1016.3 1010.6
09 19.07 С 1 н/о н/о +26.4 +19.2 65 +32 +32 очень
душно
1016.3 1010.7
10 19.07 ЮВ 2 н/о н/о +28.2 +18.0 54 +33 +33 очень
душно
1016.1 1010.5
11 19.07 ЮВ 1 н/о н/о +29.2 +18.6 53 +34 +34 очень
душно
1015.9 1010.3
12 19.07 Ю 2 н/о н/о +30.1 +17.8 48 +35 +35 очень
душно
1015.6 1010.0
13 19.07 З 2 н/о н/о +30.9 +18.6 48 +36 +36 очень
душно
1015.2 1009.6
14 19.07 СВ 1 н/о н/о +31.2 +17.8 45 +35 +35 очень
душно
1014.7 1009.1
15 19.07 Ю 2 н/о н/о +31.5 +17.8 44 +36 +36 очень
душно
1014.6 1009.0
16 19.07 СЗ 3 н/о н/о +31.6 +18.2 45 +36 +36 очень
душно
1014.2 1008.7
17 19.07 В 2 н/о н/о +31.6 +17.8 44 +36 +36 очень
душно
1014.2 1008.7
18 19.07 Ю 4 н/о н/о +30.1 +19.1 52 +36 +36 очень
душно
1014.6 1009.0 +32.5
19 19.07 ЮЗ 5 н/о н/о +27.9 +18.8 58 +33 +33 очень
душно
1015.0 1009.4
20 19.07 ЮЗ 5 н/о н/о +26.7 +18.2 60 +31 +31 душно 1015.5 1009.9
21 19.07 З 2 н/о н/о +26.3 +18.4 62 +31 +31 душно 1015.8 1010.1
22 19.07 Ю 3 н/о н/о +25.0 +17.9 65 +29 +29 душно 1016.1 1010.4
23 19.07 СЗ 6 н/о н/о +23.8 +17.2 67 +28 +28 душно 1016.4 1010.7
00 20.07 СЗ 2 н/о н/о +22.6 +17.0 71 +27 +27 душно 1016.6 1010.9
01 20.07 С 3 н/о н/о +21.6 +16.7 74 +26 +26 душно 1016.4 1010.7
02 20.07 СЗ 3 н/о н/о +21.5 +16.2 72 +25 +25 комфорт 1016.5 1010.8
03 20.07 СЗ 4 н/о н/о +21.3 +15.3 69 +24 +24 комфорт 1016.7 1010.9
04 20.07 С 3 н/о н/о +20.4 +14.9 71 +23 +23 комфорт 1016.9 1011.1
05 20.07 СЗ 2 н/о н/о +20.9 +14.9 69 +25 +25 комфорт 1017.1 1011.3
06 20.07 С 2 н/о н/о +22.3 +15.1 64 +26 +26 жарко 1017.6 1011.9 +20.2 503
07 20.07 С 2 н/о н/о +24.0 +16.4 62 +27 +27 жарко 1018.0 1012.3
08 20.07 С 2 н/о н/о +26.1 +18.2 62 +31 +31 очень
душно
1017.9 1012.2
09 20.07 С 1 н/о н/о +27.9 +18.8 58 +33 +33 очень
душно
1017.9 1012.3
10 20.07 ЮЗ 2 н/о н/о +29.5 +19.8 56 +36 +36 очень
душно
1017.9 1012.3
11 20.07 СЗ 1 н/о н/о +30.5 +19.5 52 +36 +36 очень
душно
1017.9 1012.3
12 20.07 З 2 н/о н/о +32.0 +19.6 48 +38 +38 очень
душно
1017.4 1011.8
13 20.07 С 3 н/о н/о +32.9 +18.7 43 +38 +38 очень
душно
1017.1 1011.5
14 20.07 ЮВ 1 н/о н/о +33.4 +18.7 42 +38 +38 очень
душно
1016.7 1011.2
15 20.07 СВ 1 н/о н/о +34.1 +19.4 42 +39 +39 очень
душно
1016.5 1011.0
16 20.07 ЮВ 2 н/о н/о +33.8 +19.1 42 +39 +39 очень
душно
1016.2 1010.7
17 20.07 Ю 2 н/о н/о +33.0 +18.4 42 +38 +38 очень
душно
1016.1 1010.6
18 20.07 ЮЗ 4 н/о н/о +31.2 +20.1 52 +38 +38 очень
душно
1016.4 1010.8 +34.8
19 20.07 ЮЗ 4 н/о н/о +29.3 +20.1 58 +36 +36 очень
душно
1016.5 1010.9
20 20.07 ЮЗ 1 н/о н/о +27.8 +19.5 61 +34 +34 очень
душно
1017.2 1011.6
21 20.07 СЗ 2 н/о н/о +26.3 +17.9 60 +31 +31 душно 1017.9 1012.2
22 20.07 СЗ 3 н/о н/о +25.7 +17.3 60 +30 +30 душно 1018.1 1012.4
23 20.07 СЗ 2 н/о н/о +25.0 +16.1 58 +28 +28 жарко 1018.6 1012.9
00 21.07 С 2 н/о н/о +24.3 +15.4 58 +27 +27 жарко 1018.8 1013.1
01 21.07 С 4 н/о н/о +22.9 +14.6 59 +27 +27 душно 1018.8 1013.1
02 21.07 СЗ 3 н/о н/о +22.9 +14.1 58 +26 +26 жарко 1018.7 1013.0
03 21.07 СЗ 4 н/о н/о +22.3 +13.8 59 +25 +25 комфорт 1018.7 1013.0
04 21.07 СЗ 3 н/о н/о +21.8 +13.3 58 +24 +24 комфорт 1019.3 1013.5
05 21.07 СЗ 4 н/о н/о +22.0 +13.0 57 +25 +25 комфорт 1019.2 1013.4
06 21.07 СЗ 5 н/о н/о +22.9 +13.6 56 +26 +26 жарко 1019.1 1013.4 +21.3 207
07 21.07 С 4 н/о н/о +24.5 +15.1 56 +27 +27 жарко 1019.5 1013.8
08 21.07 С 1 н/о н/о +27.0 +16.5 53 +31 +31 душно 1019.4 1013.7
09 21.07 С 2 н/о н/о +29.1 +16.3 46 +32 +32 душно 1019.2 1013.6
10 21.07 В 3 н/о н/о +31.3 +16.8 42 +35 +35 очень
душно
1019.2 1013.6
11 21.07 В 2 н/о н/о +32.0 +16.7 40 +35 +35 очень
душно
1019.1 1013.5
12 21.07 В 3 н/о н/о +32.6 +15.6 36 +35 +35 душно 1018.9 1013.3

 

Местоположение метеостанции Болонья (Италия): широта 44.53 долгота 11.28 высота над уровнем моря 51 м.

В архиве по умолчанию представлена погода в Болонье за последнюю неделю. Архивные данные за месяц целиком и за предыдущие месяцы, начиная с января 2011 года, Вы можете получить, выбрав интересующий диапазон дат из раскрывающегося списка и нажав кнопку "Ввод!".


*Определитесь, кто Вы:
робот инопланетянин человек

Внимание! Время в таблицах - всемирное. Для получения местного времени необходимо прибавить поправку, которая равна 1 ч.

Смотрите также архив погоды в соседних городах и на ближайших метеорологических станциях:

Погода в Болонье (Италия) (2 км)
Погода в Ферраре (Италия) (43 км)
Погода на Монте Симон (Италия) (59 км)
Погода в Пунта Марина (Италия) (81 км)
Погода во Флоренции (Италия) (81 км)
Погода в Флоренция аэропорту (Италия) (84 км)
Погода в Червии (Италия) (88 км)
Погода в Пизе (Италия) (119 км)
Погода в Римини (Италия) (120 км)
Погода в Ареццо (Италия) (126 км)

Пояснения к столбцам:

Ветер - указаны скорость ветра в м/с - средняя за 10 мин, порывы в срок и между сроками (в фигурных скобках) и направление, откуда дует ветер: С - северный, СВ - северо-восточный, В - восточный, ЮВ - юго-восточный, Ю - южный, ЮЗ - юго-западный, З - западный, СЗ - северо-западный.
Видимость - горизонтальная дальность видимости в метрах или километрах. При видимости от 1 до 10 км при отсутствии осадков обычно наблюдается дымка, при ухудшении видимости до 1 км и менее - туман. В сухую погоду видимость может ухудшаться дымом, пылью или мглою.
Явления - указаны атмосферные явления, наблюдавшиеся в срок или в последний час перед сроком; фигурными скобками обозначены явления, наблюдавшиеся между сроками (за 1-3 часа до срока); квадратными скобками обозначены град или гололедные отложения с указанием их диаметра в мм.
Облачность - указаны через наклонную черту общая и нижняя облачность в баллах и высота нижней границы облаков в метрах; квадратными скобками обозначены формы облаков: Ci - перистые, Cs - перисто-слоистые, Cc - перисто-кучевые, Ac - высококучевые, As - высокослоистые, Sc - слоисто-кучевые, Ns - слоисто-дождевые, Cu - кучевые, Cb - кучево-дождевые. Подробнее классификацию облаков см. в Атласе облаков (PDF).
T - Температура воздуха - температура, измеренная на высоте 2 м над землей.
Td - Температура точки росы - температура, при понижении до которой содержащийся в воздухе водяной пар достигнет насыщения.
f - Относительная влажность воздуха - влажноcть воздуха, измеренная на высоте 2 м над землей.
Te - Эффективная температура - температура, которую ощущает одетый по сезону человек в тени. Характеристика душности погоды. При расчете учитывается влияние влажности воздуха и скорости ветра на теплоощущения человека.
Tes - Эффективная температура на солнце - температура, которую ощущает человек, с поправкой на солнечный нагрев. Характеристика знойности погоды. Зависит от высоты солнца над горизонтом, облачности и скорости ветра. Ночью, в пасмурную погоду, а также при ветре 12 м/с и более поправка равна нулю.
P - Атмосферное давление - приведенное к уровню моря атмосферное давление.
Po - Атмосферное давление - измеренное на уровне метеостанции атмосферное давление.
Tmin - Минимальная температура - минимум температуры воздуха на высоте 2 м над землей.
Tmax - Максимальная температура - максимум температуры воздуха на высоте 2 м над землей.
R - Количество осадков - Количество выпавших осадков за период времени, мм. При наведении курсора мыши на число - период времени, за который выпало указанное количество осадков.
R24 - Количество осадков - Количество выпавших осадков за 24 часа, мм.
S - Снежный покров - Высота снежного покрова, см. При наведении курсора мыши на число - состояние снежного покрова и степень покрытия местности в баллах.